Weather History for KMTJ - October, 2013

Change the Weather History Date:

Wednesday, October 2, 2013

  Actual Average Record
Temperature  
Mean Temperature 61 °F 56 °F  
Max Temperature 76 °F 71 °F 84 °F (2000)
Min Temperature 45 °F 41 °F 38 °F (2014)
Degree Days  
Heating Degree Days 4 9  
Month to date heating degree days 8 18  
Since 1 July heating degree days 102 145  
Cooling Degree Days 0 0  
Month to date cooling degree days 0 0  
Year to date cooling degree days 891 643  
Growing Degree Days 10 (Base 50)    
Moisture  
Dew Point 27 °F    
Average Humidity 34    
Maximum Humidity 53    
Minimum Humidity 14    
Precipitation  
Precipitation 0.00 in 0.06 in 0.51 in (2002)
Month to date precipitation 0.00 0.13  
Year to date precipitation 8.27 8.78  
Sea Level Pressure  
Sea Level Pressure 29.86 in    
Wind  
Wind Speed 8 mph (SSE)    
Max Wind Speed 17 mph    
Max Gust Speed 23 mph    
Visibility 10 miles    
Events      
T = Trace of Precipitation, MM = Missing Value Source: NWS Daily Summary

Daily Weather History Graph

Daily Weather History Graph

Search for Another Location

Airport or City:

Trip Planner

Search our weather history database for the weather conditions in past years. The results will help you decide how hot, cold, wet, or windy it might be!

Date:

Astronomy

Oct. 02, 2013 Rise Set
Actual Time 7:08 AM MDT 6:52 PM MDT
Civil Twilight 6:42 AM MDT 7:18 PM MDT
Nautical Twilight 6:11 AM MDT 7:49 PM MDT
Astronomical Twilight 5:40 AM MDT 8:20 PM MDT
Moon 4:46 AM MDT (10/2) 5:29 PM MDT (10/2)
Length of Visible Light 12h 36m
Length of Day
11h 43m
Waning Crescent, 6% of the Moon is Illuminated
Oct 2
Waning Crescent
Oct 4
New
Oct 11
First Quarter
Oct 18
Full
Oct 26
Last Quarter

Hourly Weather History & Observations

Time (MDT) Temp. Windchill Dew Point Humidity Pressure Visibility Wind Dir Wind Speed Gust Speed Precip Events Conditions
12:53 AM 50.0 °F - 32.0 °F 50% 29.90 in 10.0 mi SE 10.4 mph - N/A   Clear
1:53 AM 48.9 °F - 30.0 °F 48% 29.90 in 10.0 mi North - - N/A   Clear
2:53 AM 46.9 °F - 30.0 °F 52% 29.90 in 10.0 mi Calm Calm - N/A   Clear
3:53 AM 48.0 °F - 28.0 °F 46% 29.88 in 10.0 mi SE 9.2 mph - N/A   Clear
4:53 AM 48.0 °F - 26.1 °F 42% 29.89 in 10.0 mi SE 10.4 mph - N/A   Clear
5:53 AM 48.9 °F - 25.0 °F 39% 29.90 in 10.0 mi SE 12.7 mph - N/A   Clear
6:53 AM 46.0 °F 41.4 °F 25.0 °F 44% 29.94 in 10.0 mi SE 9.2 mph - N/A   Clear
7:53 AM 46.0 °F 41.9 °F 28.0 °F 50% 29.96 in 10.0 mi South 8.1 mph - N/A   Clear
8:53 AM 57.0 °F - 27.0 °F 32% 29.96 in 10.0 mi SE 9.2 mph - N/A   Clear
9:53 AM 63.0 °F - 26.1 °F 25% 29.94 in 10.0 mi East 6.9 mph - N/A   Clear
10:53 AM 69.1 °F - 30.9 °F 24% 29.91 in 10.0 mi North 10.4 mph - N/A   Clear
11:53 AM 66.9 °F - 32.0 °F 27% 29.91 in 10.0 mi NNW 8.1 mph - N/A   Clear
12:53 PM 68.0 °F - 30.9 °F 25% 29.89 in 10.0 mi North 10.4 mph - N/A   Clear
1:53 PM 72.0 °F - 26.1 °F 18% 29.84 in 10.0 mi NNW 6.9 mph - N/A   Clear
2:53 PM 75.0 °F - 27.0 °F 17% 29.80 in 10.0 mi NW 5.8 mph - N/A   Clear
3:53 PM 73.9 °F - 27.0 °F 18% 29.79 in 10.0 mi West 5.8 mph - N/A   Clear
4:53 PM 75.0 °F - 27.0 °F 17% 29.77 in 10.0 mi WNW 9.2 mph - N/A   Clear
5:53 PM 73.0 °F - 21.9 °F 15% 29.76 in 10.0 mi West 17.3 mph 21.9 mph N/A   Clear
6:53 PM 69.1 °F - 21.9 °F 17% 29.80 in 10.0 mi Calm Calm - N/A   Clear
7:53 PM 64.9 °F - 24.1 °F 21% 29.83 in 10.0 mi Calm Calm - N/A   Clear
8:53 PM 63.0 °F - 25.0 °F 24% 29.82 in 10.0 mi SW 8.1 mph - N/A   Clear
9:53 PM 59.0 °F - 27.0 °F 29% 29.81 in 10.0 mi SSE 8.1 mph - N/A   Clear
10:53 PM 54.0 °F - 28.9 °F 38% 29.80 in 10.0 mi ESE 10.4 mph - N/A   Clear
11:53 PM 52.0 °F - 28.9 °F 41% 29.79 in 10.0 mi SE 4.6 mph - N/A   Clear